Flag Weather past 2 weeks in Nottingham, England, United Kingdom

Now
37 °F

Clear.


Feels Like: 30 °F
Forecast: 34 / 44 °F
Wind: 10 mph from West

Location: East Midlands

Current Time: Nov 24, 2014 at 2:58:08 AM

Latest Report: Nov 24, 2014 at 2:20 AM


Visibility: 10 mi

Pressure: 30.18 "Hg

Humidity: 87%

Dew point: 34 °F

Location of NottinghamLocation

Historic Weather in Nottingham — Graph

°F

Nottingham temperature yesterday

Maximum temperature yesterday: 48 °F (at 12:20 AM)
Minimum temperature yesterday: 36 °F (at 10:20 PM)
Average temperature yesterday: 44 °F

Past Weeks' High & Low Weather Summary

 TemperatureHumidityPressure
High59 °F (Nov 22, 1:20 PM)100% (Nov 9, 5:50 AM)30.30 "Hg (Nov 9, 5:50 AM)
Low36 °F (Nov 23, 10:20 PM)72% (Nov 11, 12:50 PM)29.27 "Hg (Nov 12, 2:20 AM)
Average48 °F93%29.73 "Hg
* Reported Nov 9 1:20 AM — Nov 24 1:50 AM, Nottingham, Weather by CustomWeather, © 2014

Note: Actual official high and low records may vary slightly from our data, if they occured in-between our weather recording intervals... More about our weather records

Advertising

Nottingham weather history for previous 24 hours

 ConditionsComfort  
Time TempWeatherWind HumidityBarometerVisibility
1:50 AM
Nov 24
37 °FClear.13 mph87%30.18 "Hg10 mi
1:20 AM37 °FClear.12 mph87%30.18 "Hg10 mi
12:50 AM37 °FClear.13 mph93%30.18 "Hg10 mi
12:20 AM37 °FClear.13 mph93%30.18 "Hg10 mi
11:50 PM
Nov 23
37 °FClear.13 mph93%30.18 "Hg10 mi
11:20 PM37 °FClear.9 mph100%30.15 "Hg10 mi
10:50 PM37 °FClear.9 mph93%30.15 "Hg10 mi
10:20 PM36 °FClear.9 mph93%30.15 "Hg10 mi
9:50 PM37 °FClear.12 mph93%30.15 "Hg10 mi
9:20 PM37 °FClear.9 mph87%30.12 "Hg10 mi
8:20 PM37 °FClear.12 mph93%30.12 "Hg10 mi
7:50 PM37 °FClear.9 mph93%30.12 "Hg10 mi
7:20 PM39 °FClear.10 mph87%30.09 "Hg10 mi
6:50 PM39 °FClear.10 mph93%30.09 "Hg10 mi
6:20 PM39 °FClear.9 mph93%30.09 "Hg10 mi
5:50 PM39 °FClear.8 mph93%30.09 "Hg10 mi
5:20 PM41 °FClear.7 mph87%30.09 "Hg10 mi
4:20 PM45 °FPassing clouds.7 mph87%30.07 "HgN/A
3:50 PM45 °FPassing clouds.8 mph87%30.07 "HgN/A
3:20 PM46 °FPassing clouds.8 mph82%30.04 "HgN/A
2:50 PM46 °FPassing clouds.9 mph87%30.04 "HgN/A
2:20 PM46 °FPassing clouds.8 mph93%30.04 "Hg5 mi
1:50 PM46 °FPassing clouds.8 mph93%30.04 "Hg5 mi
1:20 PM46 °FPassing clouds.8 mph93%30.04 "Hg5 mi
12:50 PM46 °FPassing clouds.8 mph93%30.04 "Hg5 mi
12:20 PM46 °FPassing clouds.7 mph93%30.04 "Hg5 mi
11:50 AM46 °FPassing clouds.7 mph93%30.04 "Hg5 mi
11:20 AM46 °FScattered clouds.5 mph93%30.04 "Hg5 mi
10:50 AM45 °FLight rain. Scattered clouds.2 mph100%30.04 "Hg5 mi
10:20 AM45 °FLight rain. Scattered clouds.5 mph100%30.04 "Hg5 mi
9:50 AM45 °FLight rain. Scattered clouds.2 mph100%30.04 "Hg6 mi
9:20 AM45 °FLight rain. Scattered clouds.2 mph100%30.04 "HgN/A
8:50 AM45 °FLight rain. Scattered clouds.5 mph100%30.04 "HgN/A
8:20 AM45 °FRain. Scattered clouds.5 mph100%30.04 "HgN/A
7:50 AM45 °FRain. Scattered clouds.5 mph100%30.04 "HgN/A
7:20 AM46 °FRain. Passing clouds.7 mph93%30.04 "HgN/A
6:50 AM46 °FLight rain. Partly cloudy.7 mph93%30.04 "HgN/A
6:20 AM46 °FLight rain. Fog.7 mph100%30.01 "HgN/A
5:50 AM46 °FLight rain. Passing clouds.7 mph100%30.01 "HgN/A
5:20 AM46 °FLight rain. Passing clouds.7 mph100%30.01 "HgN/A
4:50 AM46 °FLight rain. Passing clouds.6 mph100%29.98 "HgN/A
4:20 AM46 °FLight rain. Passing clouds.5 mph100%30.01 "HgN/A
3:50 AM46 °FLight rain. Passing clouds.6 mph100%30.01 "HgN/A
3:20 AM46 °FLight rain. Passing clouds.5 mph100%30.01 "HgN/A
2:50 AM48 °FLight rain. Passing clouds.9 mph94%30.01 "HgN/A
2:20 AM48 °FLight rain. Passing clouds.8 mph94%30.01 "HgN/A
Weather by CustomWeather, © 2014

See weather overviewHow to use our weather pages